FW6803 Weather Reports


time (UTC)temp
F
wind
direction
speed
knots
gust
knots
rain 1hr
in
rain 24hr
in
rain mn
in
humidity
%
barometer
mb
20260505124541 54 261 4.3 12.2 0.00 0.11 0.04 86 1006.6
20260505123058 54 283 4.3 7.8 0.00 0.11 0.04 86 1006.6
20260505121538 54 273 4.3 9.6 0.00 0.11 0.04 86 1006.6
20260505120036 54 279 5.2 11.3 0.00 0.11 0.04 86 1006.6
20260505114548 53 284 3.5 7.8 0.00 0.11 0.04 86 1006.6
20260505113038 53 284 1.7 5.2 0.00 0.11 0.04 86 1006.7
20260505111551 53 304 4.3 9.6 0.00 0.11 0.04 87 1006.8
20260505101532 53 284 1.7 8.7 0.01 0.11 0.04 88 1006.7
20260505100028 53 276 0.0 7.8 0.01 0.11 0.04 88 1006.9
20260505094523 53 274 3.5 8.7 0.01 0.11 0.04 87 1007.0
20260505093026 54 306 3.5 7.8 0.01 0.10 0.03 87 1007.1
20260505091519 54 293 2.6 7.0 0.02 0.10 0.03 87 1007.3
20260505090018 54 257 2.6 7.0 0.03 0.10 0.03 87 1007.3
20260505084519 53 271 3.5 7.8 0.04 0.10 0.03 87 1007.4
20260505083020 53 276 1.7 9.6 0.04 0.09 0.02 87 1007.4
20260505081516 53 291 3.5 7.8 0.03 0.08 0.01 86 1007.4
20260505080027 53 296 3.5 7.8 0.02 0.07 0.00 86 1007.7
20260505074507 53 273 4.3 8.7 0.02 0.06 0.06 86 1007.5
20260505073009 53 302 2.6 6.1 0.01 0.05 0.05 86 1007.8
20260505071506 53 278 0.0 5.2 0.01 0.05 0.05 85 1008.1
20260505070007 53 289 0.9 5.2 0.02 0.05 0.05 85 1007.9
20260505064505 53 267 0.9 6.1 0.01 0.04 0.04 84 1007.6
20260505063005 53 308 5.2 9.6 0.02 0.04 0.04 84 1007.3
20260505061503 53 324 5.2 9.6 0.02 0.04 0.04 83 1007.3
20260505060104 53 274 1.7 8.7 0.02 0.03 0.03 82 1007.6
20260505054605 53 336 2.6 8.7 0.03 0.03 0.03 82 1007.7
20260505053110 54 355 2.6 7.0 0.02 0.02 0.02 82 1007.5
20260505051555 54 294 0.0 5.2 0.02 0.02 0.02 82 1007.6
20260505041610 55 325 5.2 8.7 0.00 0.00 0.00 78 1008.0
20260505040050 55 19 1.7 7.0 0.00 0.00 0.00 78 1007.4
20260505034548 55 309 6.1 10.4 0.00 0.00 0.00 78 1007.2
20260505033049 56 286 2.6 8.7 0.00 0.00 0.00 79 1007.0
20260505031551 56 306 3.5 8.7 0.00 0.00 0.00 80 1006.9
20260505030046 56 326 3.5 7.0 0.00 0.00 0.00 80 1006.8
20260505024548 57 326 2.6 9.6 0.00 0.00 0.00 80 1006.9
20260505023048 57 9 2.6 7.8 0.00 0.00 0.00 80 1006.9
20260505021547 57 292 1.7 13.0 0.00 0.00 0.00 80 1006.7
20260505020044 57 286 3.5 9.6 0.00 0.00 0.00 80 1006.9
20260505014546 58 305 3.5 12.2 0.00 0.00 0.00 80 1007.1
20260505013044 58 346 3.5 12.2 0.00 0.00 0.00 80 1007.1
20260505011544 58 314 3.5 12.2 0.00 0.00 0.00 81 1007.1
20260505010045 58 313 6.1 14.8 0.00 0.00 0.00 80 1007.2
20260505004543 58 294 5.2 10.4 0.00 0.00 0.00 79 1007.3
20260505003041 59 360 4.3 11.3 0.00 0.00 0.00 79 1007.4
20260505001549 59 305 5.2 12.2 0.00 0.00 0.00 78 1007.5
20260505000049 59 273 7.8 13.0 0.00 0.00 0.00 77 1007.4
20260504234543 60 262 5.2 13.9 0.00 0.00 0.00 76 1007.3
20260504233038 60 314 5.2 12.2 0.00 0.00 0.00 76 1007.3
20260504231554 60 360 6.1 12.2 0.00 0.00 0.00 75 1007.3
20260504230037 60 290 5.2 11.3 0.00 0.00 0.00 74 1007.4
20260504224539 62 360 2.6 9.6 0.00 0.00 0.00 73 1007.6
20260504223034 62 298 1.7 9.6 0.00 0.00 0.00 72 1007.5
20260504221533 63 288 6.1 11.3 0.00 0.00 0.00 69 1007.6
20260504220035 64 360 5.2 11.3 0.00 0.00 0.00 69 1007.6
20260504214531 63 337 5.2 12.2 0.00 0.00 0.00 68 1007.6
20260504213029 64 275 4.3 12.2 0.00 0.00 0.00 67 1007.6
20260504211530 64 304 7.8 12.2 0.00 0.00 0.00 65 1007.8
20260504210037 64 311 4.3 8.7 0.00 0.00 0.00 66 1007.8
20260504204526 62 26 4.3 12.2 0.00 0.00 0.00 68 1007.9
20260504203032 64 344 6.1 9.6 0.00 0.00 0.00 66 1007.8
20260504201527 66 269 4.3 9.6 0.00 0.00 0.00 63 1007.7
20260504200025 64 306 6.1 12.2 0.00 0.00 0.00 65 1007.9
20260504194536 63 311 6.1 11.3 0.00 0.00 0.00 67 1007.9
20260504193022 63 360 3.5 12.2 0.00 0.00 0.00 70 1007.9
20260504191519 63 355 3.5 10.4 0.00 0.00 0.00 69 1007.9
20260504190020 62 261 4.3 12.2 0.00 0.00 0.00 72 1007.9
20260504184516 63 283 6.1 9.6 0.00 0.00 0.00 69 1008.0
20260504183016 63 257 4.3 12.2 0.00 0.00 0.00 70 1007.9
20260504181516 63 296 5.2 13.0 0.00 0.00 0.00 70 1008.0
20260504180018 65 273 2.6 11.3 0.00 0.00 0.00 67 1007.8
20260504174512 62 313 2.6 9.6 0.00 0.00 0.00 70 1007.8
20260504173015 62 267 1.7 8.7 0.00 0.00 0.00 72 1007.6
20260504171508 65 345 0.0 9.6 0.00 0.00 0.00 68 1007.4